UAL132 PKWA-PTSA

Flight info

Callsign UAL132
Flight time 1h 1m
Altitude 36000
Route STEFF LECWI
Aircraft B38M/M-SDE1FGHILORVWXY/HB1

Departure

Time 2026-04-29 10:14
Airport Bucholz Army Air Field (PKWA)

Arrival

Time 2026-04-29 11:16
Airport Kosrae International Airport (PTSA)
Time Latitude Longitude Altitude Speed Heading
2026-04-29 09:45 8.72737 167.74021 -50 ft 0 kts 119°
2026-04-29 10:05 8.72735 167.74025 -34 ft 2 kts 120°
2026-04-29 10:06 8.72723 167.74044 -48 ft 4 kts 121°
2026-04-29 10:06 8.72704 167.74079 -43 ft 7 kts 116°
2026-04-29 10:06 8.72672 167.74124 -49 ft 9 kts 146°
2026-04-29 10:06 8.72605 167.74145 -43 ft 11 kts 174°
2026-04-29 10:07 8.72521 167.74129 -34 ft 14 kts 199°
2026-04-29 10:07 8.72448 167.74092 -39 ft 10 kts 233°
2026-04-29 10:07 8.72425 167.74017 -34 ft 12 kts 255°
2026-04-29 10:07 8.72393 167.73962 -37 ft 8 kts 204°
2026-04-29 10:08 8.72359 167.73919 -41 ft 10 kts 255°
2026-04-29 10:08 8.72336 167.73845 -52 ft 12 kts 252°
2026-04-29 10:08 8.72309 167.73757 -48 ft 14 kts 252°
2026-04-29 10:08 8.72278 167.73653 -40 ft 17 kts 253°
2026-04-29 10:09 8.72240 167.73535 -38 ft 19 kts 253°
2026-04-29 10:09 8.72200 167.73403 -45 ft 21 kts 252°
2026-04-29 10:09 8.72155 167.73256 -44 ft 23 kts 252°
2026-04-29 10:09 8.72106 167.73098 -34 ft 25 kts 252°
2026-04-29 10:10 8.72053 167.72926 -38 ft 27 kts 252°
2026-04-29 10:10 8.72000 167.72751 -49 ft 24 kts 253°
2026-04-29 10:10 8.71948 167.72586 -37 ft 25 kts 252°
2026-04-29 10:10 8.71905 167.72444 -34 ft 17 kts 253°
2026-04-29 10:11 8.71870 167.72338 -45 ft 16 kts 251°
2026-04-29 10:11 8.71842 167.72288 -46 ft 5 kts 206°
2026-04-29 10:11 8.71835 167.72286 -48 ft 0 kts 191°
2026-04-29 10:11 8.71834 167.72286 -48 ft 1 kts 188°
2026-04-29 10:12 8.71820 167.72287 -43 ft 4 kts 171°
2026-04-29 10:12 8.71772 167.72303 -39 ft 10 kts 147°
2026-04-29 10:12 8.71766 167.72368 -41 ft 8 kts 72°
2026-04-29 10:12 8.71770 167.72382 -38 ft 0 kts 72°
2026-04-29 10:13 8.71771 167.72384 -35 ft 1 kts 72°
2026-04-29 10:14 8.71792 167.72453 -39 ft 36 kts 72°
2026-04-29 10:14 8.71958 167.72993 -46 ft 122 kts 72°
2026-04-29 10:14 8.72291 167.74011 203 ft 173 kts 70°
2026-04-29 10:14 8.72735 167.75175 1113 ft 172 kts 69°
2026-04-29 10:15 8.73174 167.76310 2207 ft 179 kts 72°
2026-04-29 10:15 8.73623 167.77612 2683 ft 204 kts 77°
2026-04-29 10:15 8.73813 167.79064 3439 ft 222 kts 95°
2026-04-29 10:15 8.73429 167.80600 4204 ft 234 kts 115°
2026-04-29 10:16 8.72413 167.81886 5277 ft 238 kts 141°
2026-04-29 10:16 8.71431 167.82454 5798 ft 252 kts 157°
2026-04-29 10:16 8.69031 167.82713 6960 ft 267 kts 186°
2026-04-29 10:16 8.67259 167.82092 7830 ft 280 kts 208°
2026-04-29 10:17 8.65722 167.80809 8495 ft 292 kts 229°
2026-04-29 10:17 8.64572 167.79134 9750 ft 288 kts 236°
2026-04-29 10:17 8.63471 167.77406 10485 ft 300 kts 236°
2026-04-29 10:17 8.62293 167.75579 10966 ft 318 kts 235°
2026-04-29 10:18 8.61055 167.73670 11547 ft 330 kts 236°
2026-04-29 10:18 8.59788 167.71719 12404 ft 331 kts 235°
2026-04-29 10:18 8.58516 167.69757 13170 ft 337 kts 234°
2026-04-29 10:18 8.57227 167.67771 13940 ft 340 kts 234°
2026-04-29 10:19 8.55934 167.65780 14557 ft 345 kts 234°
2026-04-29 10:19 8.54610 167.63740 15208 ft 350 kts 234°
2026-04-29 10:19 8.53265 167.61669 15836 ft 354 kts 234°
2026-04-29 10:19 8.51904 167.59574 16466 ft 358 kts 234°
2026-04-29 10:20 8.50528 167.57456 17071 ft 363 kts 235°
2026-04-29 10:20 8.49138 167.55313 17680 ft 366 kts 234°
2026-04-29 10:20 8.47732 167.53150 18263 ft 370 kts 235°
2026-04-29 10:20 8.46310 167.50962 18734 ft 375 kts 235°
2026-04-29 10:21 8.44887 167.48772 19235 ft 378 kts 235°
2026-04-29 10:21 8.43436 167.46543 19706 ft 381 kts 235°
2026-04-29 10:21 8.41975 167.44292 20210 ft 384 kts 235°
2026-04-29 10:21 8.41001 167.42794 20565 ft 385 kts 234°
2026-04-29 10:22 8.39516 167.40512 21017 ft 390 kts 235°
2026-04-29 10:22 8.38018 167.38208 21471 ft 394 kts 235°
2026-04-29 10:22 8.36506 167.35885 21971 ft 396 kts 234°
2026-04-29 10:22 8.34985 167.33547 22465 ft 399 kts 235°
2026-04-29 10:23 8.33454 167.31191 22947 ft 403 kts 236°
2026-04-29 10:23 8.31904 167.28811 23374 ft 407 kts 234°
2026-04-29 10:23 8.30361 167.26443 23780 ft 410 kts 234°
2026-04-29 10:23 8.28794 167.24035 24233 ft 411 kts 235°
2026-04-29 10:24 8.27218 167.21614 24643 ft 414 kts 235°
2026-04-29 10:24 8.25627 167.19170 24982 ft 418 kts 234°
2026-04-29 10:24 8.24023 167.16711 25405 ft 419 kts 234°
2026-04-29 10:24 8.22412 167.14237 25825 ft 421 kts 235°
2026-04-29 10:25 8.20816 167.11786 26225 ft 424 kts 234°
2026-04-29 10:25 8.19190 167.09292 26571 ft 428 kts 234°
2026-04-29 10:25 8.17547 167.06771 26988 ft 429 kts 234°
2026-04-29 10:25 8.15901 167.04248 27391 ft 431 kts 235°
2026-04-29 10:26 8.14242 167.01703 27759 ft 434 kts 235°
2026-04-29 10:26 8.12572 166.99143 28106 ft 437 kts 234°
2026-04-29 10:26 8.10901 166.96582 28556 ft 437 kts 235°
2026-04-29 10:26 8.09245 166.94043 28930 ft 439 kts 234°
2026-04-29 10:27 8.05858 166.88853 29578 ft 445 kts 234°
2026-04-29 10:27 8.04148 166.86233 29943 ft 447 kts 235°
2026-04-29 10:27 8.02432 166.83604 30239 ft 449 kts 234°
2026-04-29 10:28 8.00706 166.80961 30505 ft 452 kts 235°
2026-04-29 10:28 7.98990 166.78333 30781 ft 454 kts 235°
2026-04-29 10:28 7.97249 166.75667 31059 ft 456 kts 235°
2026-04-29 10:28 7.95497 166.72986 31325 ft 458 kts 235°
2026-04-29 10:29 7.93734 166.70288 31591 ft 461 kts 235°
2026-04-29 10:29 7.91966 166.67582 31852 ft 463 kts 235°
2026-04-29 10:29 7.90183 166.64856 32112 ft 465 kts 234°
2026-04-29 10:29 7.88420 166.62159 32365 ft 468 kts 234°
2026-04-29 10:30 7.86620 166.59406 32612 ft 470 kts 234°
2026-04-29 10:30 7.84816 166.56648 32863 ft 472 kts 234°
2026-04-29 10:30 7.83000 166.53872 33115 ft 474 kts 234°
2026-04-29 10:30 7.81172 166.51079 33355 ft 476 kts 234°
2026-04-29 10:31 7.79344 166.48285 33596 ft 478 kts 234°
2026-04-29 10:31 7.77506 166.45477 33838 ft 481 kts 234°
2026-04-29 10:31 7.75682 166.42690 34046 ft 483 kts 234°
2026-04-29 10:31 7.73821 166.39848 34289 ft 483 kts 235°
2026-04-29 10:32 7.71968 166.37017 34601 ft 482 kts 235°
2026-04-29 10:32 7.70118 166.34193 34904 ft 481 kts 235°
2026-04-29 10:32 7.68300 166.31417 35204 ft 480 kts 235°
2026-04-29 10:32 7.66459 166.28607 35496 ft 479 kts 235°
2026-04-29 10:33 7.64618 166.25798 35800 ft 479 kts 235°
2026-04-29 10:33 7.62782 166.22997 35940 ft 479 kts 236°
2026-04-29 10:33 7.60949 166.20201 35930 ft 476 kts 236°
2026-04-29 10:34 7.57302 166.14640 35929 ft 475 kts 236°
2026-04-29 10:34 7.53677 166.09116 35927 ft 474 kts 235°
2026-04-29 10:35 7.50035 166.03566 35927 ft 474 kts 235°
2026-04-29 10:35 7.46389 165.98012 35929 ft 474 kts 235°
2026-04-29 10:36 7.42765 165.92494 35928 ft 474 kts 235°
2026-04-29 10:36 7.39115 165.86938 35928 ft 474 kts 235°
2026-04-29 10:37 7.35470 165.81392 35923 ft 475 kts 236°
2026-04-29 10:37 7.31808 165.75822 35930 ft 476 kts 235°
2026-04-29 10:38 7.28174 165.70297 35928 ft 476 kts 235°
2026-04-29 10:38 7.24515 165.64736 35928 ft 476 kts 235°
2026-04-29 10:39 7.20852 165.59170 35925 ft 476 kts 235°
2026-04-29 10:39 7.17215 165.53646 35925 ft 476 kts 235°
2026-04-29 10:40 7.13550 165.48080 35922 ft 476 kts 235°
2026-04-29 10:40 7.09889 165.42524 35923 ft 476 kts 235°
2026-04-29 10:41 7.06247 165.36998 35927 ft 476 kts 235°
2026-04-29 10:41 7.02584 165.31441 35924 ft 476 kts 235°
2026-04-29 10:42 6.98908 165.25901 35922 ft 475 kts 233°
2026-04-29 10:42 6.95072 165.20510 35923 ft 476 kts 233°
2026-04-29 10:43 6.91230 165.15075 35924 ft 476 kts 233°
2026-04-29 10:43 6.87384 165.09632 35922 ft 476 kts 233°
2026-04-29 10:44 6.83542 165.04200 35924 ft 475 kts 233°
2026-04-29 10:44 6.79741 164.98825 35924 ft 474 kts 233°
2026-04-29 10:45 6.75910 164.93410 35924 ft 474 kts 233°
2026-04-29 10:45 6.72078 164.87994 35924 ft 474 kts 233°
2026-04-29 10:46 6.68242 164.82577 35926 ft 474 kts 233°
2026-04-29 10:46 6.64433 164.77197 35919 ft 474 kts 233°
2026-04-29 10:47 6.60602 164.71790 35919 ft 475 kts 233°
2026-04-29 10:47 6.56752 164.66356 35925 ft 477 kts 233°
2026-04-29 10:48 6.52900 164.60922 35918 ft 477 kts 233°
2026-04-29 10:48 6.49070 164.55519 35912 ft 477 kts 233°
2026-04-29 10:49 6.45242 164.50122 35348 ft 470 kts 233°
2026-04-29 10:49 6.43327 164.47423 34477 ft 476 kts 233°
2026-04-29 10:49 6.41402 164.44710 33766 ft 478 kts 233°
2026-04-29 10:49 6.39477 164.41997 33213 ft 473 kts 233°
2026-04-29 10:50 6.37573 164.39314 32737 ft 468 kts 233°
2026-04-29 10:50 6.35688 164.36658 32230 ft 463 kts 233°
2026-04-29 10:50 6.33845 164.34063 31700 ft 461 kts 233°
2026-04-29 10:50 6.31986 164.31445 31171 ft 458 kts 233°
2026-04-29 10:51 6.30136 164.28840 30648 ft 455 kts 233°
2026-04-29 10:51 6.28296 164.26250 30134 ft 453 kts 233°
2026-04-29 10:51 6.26465 164.23673 29556 ft 451 kts 233°
2026-04-29 10:51 6.24648 164.21114 29003 ft 448 kts 233°
2026-04-29 10:52 6.22869 164.18612 28517 ft 443 kts 233°
2026-04-29 10:52 6.21082 164.16096 28044 ft 439 kts 234°
2026-04-29 10:52 6.19317 164.13610 27571 ft 435 kts 233°
2026-04-29 10:52 6.17559 164.11138 27088 ft 432 kts 233°
2026-04-29 10:53 6.15819 164.08690 26636 ft 429 kts 233°
2026-04-29 10:53 6.14088 164.06256 26181 ft 426 kts 234°
2026-04-29 10:53 6.12370 164.03839 25727 ft 423 kts 233°
2026-04-29 10:53 6.10660 164.01436 25282 ft 421 kts 233°
2026-04-29 10:54 6.08983 163.99077 24851 ft 418 kts 234°
2026-04-29 10:54 6.07296 163.96705 24420 ft 416 kts 234°
2026-04-29 10:54 6.05617 163.94345 23992 ft 414 kts 234°
2026-04-29 10:54 6.03948 163.91999 23569 ft 412 kts 234°
2026-04-29 10:55 6.02282 163.89658 23078 ft 410 kts 234°
2026-04-29 10:55 6.00632 163.87340 22630 ft 406 kts 234°
2026-04-29 10:55 5.98994 163.85039 22204 ft 402 kts 234°
2026-04-29 10:55 5.97372 163.82760 21807 ft 398 kts 234°
2026-04-29 10:56 5.95788 163.80536 21410 ft 395 kts 234°
2026-04-29 10:56 5.94196 163.78301 21008 ft 391 kts 234°
2026-04-29 10:56 5.92618 163.76085 20616 ft 388 kts 234°
2026-04-29 10:56 5.91053 163.73887 20215 ft 384 kts 234°
2026-04-29 10:57 5.89501 163.71709 19829 ft 381 kts 234°
2026-04-29 10:57 5.87965 163.69551 19445 ft 378 kts 235°
2026-04-29 10:57 5.86436 163.67406 19062 ft 375 kts 235°
2026-04-29 10:57 5.84938 163.65302 18682 ft 373 kts 234°
2026-04-29 10:58 5.83425 163.63181 18300 ft 370 kts 234°
2026-04-29 10:58 5.81930 163.61083 17882 ft 368 kts 234°
2026-04-29 10:58 5.80446 163.59000 17484 ft 364 kts 234°
2026-04-29 10:58 5.78976 163.56937 17103 ft 361 kts 234°
2026-04-29 10:59 5.77539 163.54920 16738 ft 357 kts 234°
2026-04-29 10:59 5.76100 163.52901 16370 ft 354 kts 234°
2026-04-29 10:59 5.74674 163.50902 16009 ft 350 kts 234°
2026-04-29 10:59 5.73261 163.48920 15664 ft 347 kts 235°
2026-04-29 11:00 5.71861 163.46958 15296 ft 344 kts 234°
2026-04-29 11:00 5.70472 163.45012 14940 ft 341 kts 234°
2026-04-29 11:00 5.69094 163.43079 14585 ft 338 kts 235°
2026-04-29 11:00 5.67728 163.41164 14236 ft 336 kts 235°
2026-04-29 11:01 5.66377 163.39270 13884 ft 329 kts 235°
2026-04-29 11:01 5.65061 163.37425 13520 ft 320 kts 235°
2026-04-29 11:01 5.63907 163.35586 13127 ft 311 kts 245°
2026-04-29 11:01 5.63001 163.33620 12793 ft 308 kts 245°
2026-04-29 11:02 5.62097 163.31679 12483 ft 305 kts 245°
2026-04-29 11:02 5.61197 163.29761 12184 ft 302 kts 245°
2026-04-29 11:02 5.60302 163.27861 11862 ft 299 kts 245°
2026-04-29 11:02 5.59423 163.25998 11565 ft 297 kts 245°
2026-04-29 11:03 5.58538 163.24125 11247 ft 296 kts 245°
2026-04-29 11:03 5.57659 163.22264 10942 ft 294 kts 245°
2026-04-29 11:03 5.56785 163.20414 10633 ft 292 kts 245°
2026-04-29 11:03 5.55916 163.18575 10330 ft 290 kts 245°
2026-04-29 11:04 5.55055 163.16754 10124 ft 285 kts 244°
2026-04-29 11:04 5.54218 163.14982 9992 ft 277 kts 245°
2026-04-29 11:04 5.53402 163.13255 9772 ft 272 kts 245°
2026-04-29 11:04 5.52600 163.11559 9460 ft 271 kts 244°
2026-04-29 11:05 5.51791 163.09849 9145 ft 270 kts 244°
2026-04-29 11:05 5.50988 163.08148 8851 ft 269 kts 244°
2026-04-29 11:05 5.50176 163.06432 8562 ft 274 kts 244°
2026-04-29 11:05 5.49352 163.04689 8269 ft 278 kts 244°
2026-04-29 11:06 5.48517 163.02924 8001 ft 280 kts 244°
2026-04-29 11:06 5.47683 163.01161 7758 ft 280 kts 244°
2026-04-29 11:06 5.46845 162.99388 7480 ft 281 kts 244°
2026-04-29 11:06 5.46003 162.97609 7182 ft 282 kts 245°
2026-04-29 11:07 5.45173 162.95854 6873 ft 281 kts 244°
2026-04-29 11:07 5.44334 162.94082 6579 ft 281 kts 244°
2026-04-29 11:07 5.43494 162.92308 6260 ft 281 kts 244°
2026-04-29 11:07 5.42655 162.90534 5936 ft 280 kts 244°
2026-04-29 11:08 5.42101 162.89365 5730 ft 280 kts 244°
2026-04-29 11:08 5.41266 162.87600 5423 ft 279 kts 244°
2026-04-29 11:08 5.40163 162.85269 5013 ft 278 kts 244°
2026-04-29 11:08 5.39611 162.84103 4811 ft 278 kts 244°
2026-04-29 11:09 5.38779 162.82347 4467 ft 279 kts 244°
2026-04-29 11:09 5.37942 162.80578 4133 ft 280 kts 244°
2026-04-29 11:09 5.37119 162.78844 3939 ft 268 kts 243°
2026-04-29 11:09 5.36032 162.77403 3775 ft 253 kts 216°
2026-04-29 11:10 5.34506 162.76702 3665 ft 234 kts 188°
2026-04-29 11:10 5.32941 162.76750 3543 ft 219 kts 163°
2026-04-29 11:10 5.31570 162.77219 3482 ft 203 kts 157°
2026-04-29 11:10 5.30290 162.77714 3350 ft 192 kts 155°
2026-04-29 11:11 5.29237 162.78419 3180 ft 175 kts 125°
2026-04-29 11:11 5.28783 162.79517 3045 ft 171 kts 94°
2026-04-29 11:11 5.28936 162.80685 2894 ft 170 kts 70°
2026-04-29 11:11 5.29353 162.81781 2716 ft 170 kts 68°
2026-04-29 11:12 5.29783 162.82842 2540 ft 159 kts 66°
2026-04-29 11:12 5.30160 162.83828 2391 ft 143 kts 69°
2026-04-29 11:12 5.30530 162.84731 2248 ft 137 kts 66°
2026-04-29 11:12 5.30917 162.85596 2109 ft 135 kts 65°
2026-04-29 11:13 5.31301 162.86445 1978 ft 138 kts 65°
2026-04-29 11:13 5.31706 162.87345 1777 ft 144 kts 65°
2026-04-29 11:13 5.32120 162.88259 1559 ft 143 kts 65°
2026-04-29 11:13 5.32531 162.89185 1307 ft 149 kts 66°
2026-04-29 11:14 5.32942 162.90122 1183 ft 144 kts 66°
2026-04-29 11:14 5.33328 162.91055 978 ft 145 kts 68°
2026-04-29 11:14 5.33691 162.91995 800 ft 147 kts 71°
2026-04-29 11:14 5.34050 162.92964 560 ft 148 kts 71°
2026-04-29 11:15 5.34446 162.93909 346 ft 147 kts 62°
2026-04-29 11:15 5.34974 162.94769 152 ft 142 kts 59°
2026-04-29 11:15 5.35516 162.95574 33 ft 131 kts 58°
2026-04-29 11:15 5.35904 162.96144 33 ft 61 kts 55°
2026-04-29 11:16 5.36075 162.96393 32 ft 24 kts 47°
2026-04-29 11:16 5.36143 162.96459 32 ft 11 kts 95°
2026-04-29 11:16 5.36099 162.96465 32 ft 8 kts 248°
2026-04-29 11:16 5.36076 162.96408 32 ft 10 kts 245°
2026-04-29 11:17 5.36024 162.96323 32 ft 18 kts 235°
2026-04-29 11:17 5.35950 162.96214 32 ft 20 kts 236°
2026-04-29 11:17 5.35861 162.96097 32 ft 23 kts 234°
2026-04-29 11:17 5.35769 162.95957 31 ft 25 kts 237°
2026-04-29 11:18 5.35668 162.95802 30 ft 28 kts 235°
2026-04-29 11:18 5.35558 162.95641 30 ft 27 kts 236°
2026-04-29 11:18 5.35468 162.95531 31 ft 13 kts 193°
2026-04-29 11:18 5.35413 162.95548 31 ft 4 kts 145°
2026-04-29 11:19 5.35381 162.95559 28 ft 6 kts 182°
2026-04-29 11:19 5.35349 162.95543 30 ft 5 kts 173°
2026-04-29 11:19 5.35324 162.95563 30 ft 3 kts 127°
2026-04-29 11:19 5.35326 162.95583 30 ft 4 kts 64°
2026-04-29 11:20 5.35334 162.95593 32 ft 2 kts 51°
2026-04-29 11:20 5.35338 162.95597 33 ft 0 kts 51°